owner,sensor,date,latitude,longitude,vertical_datum,direction_of_sea_water_velocity,sea_water_speed,upward_sea_water_velocity,qcFlag 
TABS,ioos:station:wmo:42044:1,2004-07-07T22:00:00Z,26.1914,-97.0507,2.0,16.66830714,8.820623561,-99999.0,'11133222,11111222,99999999' 
TABS,ioos:station:wmo:42044:1,2004-07-07T22:30:00Z,26.1914,-97.0507,2.0,22.51668793,12.79540543,-99999.0,'11111222,11111222,99999999' 
TABS,ioos:station:wmo:42044:1,2004-07-07T23:00:00Z,26.1914,-97.0507,2.0,8.999771498,15.47044925,-99999.0,'11111222,11111222,99999999' 
TABS,ioos:station:wmo:42044:1,2004-07-07T23:30:00Z,26.1914,-97.0507,2.0,5.447314734,16.01230777,-99999.0,'11111222,11111222,99999999' 
TABS,ioos:station:wmo:42044:1,2004-07-08T00:00:00Z,26.1914,-97.0507,2.0,2.430485724,17.21548431,-99999.0,'11111222,11111222,99999999' 
TABS,ioos:station:wmo:42044:1,2004-07-08T00:30:00Z,26.1914,-97.0507,2.0,4.993648652,18.84151002,-99999.0,'11111222,11111222,99999999' 
TABS,ioos:station:wmo:42044:1,2004-07-08T01:00:00Z,26.1914,-97.0507,2.0,5.99117559,18.29994809,-99999.0,'11111222,11111222,99999999' 
TABS,ioos:station:wmo:42044:1,2004-07-08T01:30:00Z,26.1914,-97.0507,2.0,5.987378224,16.48994845,-99999.0,'11111222,11111222,99999999' 
TABS,ioos:station:wmo:42044:1,2004-07-08T02:00:00Z,26.1914,-97.0507,2.0,1.331612679,16.35441531,-99999.0,'11111222,11111222,99999999' 
TABS,ioos:station:wmo:42044:1,2004-07-08T03:00:00Z,26.1914,-97.0507,2.0,3.558710807,18.04479149,-99999.0,'11111222,11111222,99999999' 
TABS,ioos:station:wmo:42044:1,2004-07-08T04:00:00Z,26.1914,-97.0507,2.0,356.0840277,19.03444509,-99999.0,'11111222,11111222,99999999' 
TABS,ioos:station:wmo:42044:1,2004-07-08T04:30:00Z,26.1914,-97.0507,2.0,3.036920603,18.87650656,-99999.0,'11111222,11111222,99999999' 
TABS,ioos:station:wmo:42044:1,2004-07-08T05:00:00Z,26.1914,-97.0507,2.0,4.527546004,19.12968897,-99999.0,'11111222,11111222,99999999' 
TABS,ioos:station:wmo:42044:1,2004-07-08T05:30:00Z,26.1914,-97.0507,2.0,5.625815872,17.44401617,-99999.0,'11111222,11111222,99999999' 
TABS,ioos:station:wmo:42044:1,2004-07-08T06:00:00Z,26.1914,-97.0507,2.0,2.117249965,15.70071654,-99999.0,'11111222,11111222,99999999' 
TABS,ioos:station:wmo:42044:1,2004-07-08T06:30:00Z,26.1914,-97.0507,2.0,352.161628,18.62401944,-99999.0,'11111222,11111222,99999999' 
TABS,ioos:station:wmo:42044:1,2004-07-08T07:00:00Z,26.1914,-97.0507,2.0,353.7257276,18.29962021,-99999.0,'11111222,11111222,99999999' 
TABS,ioos:station:wmo:42044:1,2004-07-08T07:30:00Z,26.1914,-97.0507,2.0,349.9837646,19.54795386,-99999.0,'11111222,11111222,99999999' 
TABS,ioos:station:wmo:42044:1,2004-07-08T08:00:00Z,26.1914,-97.0507,2.0,342.4021042,18.62147685,-99999.0,'11111222,11111222,99999999' 
TABS,ioos:station:wmo:42044:1,2004-07-08T08:30:00Z,26.1914,-97.0507,2.0,350.3363395,21.0284046,-99999.0,'11111222,11111222,99999999' 
TABS,ioos:station:wmo:42044:1,2004-07-08T09:00:00Z,26.1914,-97.0507,2.0,356.5443281,21.0683127,-99999.0,'11111222,11111222,99999999' 
TABS,ioos:station:wmo:42044:1,2004-07-08T09:30:00Z,26.1914,-97.0507,2.0,355.9202247,21.78521058,-99999.0,'11111222,11111222,99999999' 
TABS,ioos:station:wmo:42044:1,2004-07-08T10:00:00Z,26.1914,-97.0507,2.0,358.987383,22.06344715,-99999.0,'11111222,11111222,99999999' 
TABS,ioos:station:wmo:42044:1,2004-07-08T10:30:00Z,26.1914,-97.0507,2.0,2.896627479,23.55008493,-99999.0,'11111222,11111222,99999999' 
TABS,ioos:station:wmo:42044:1,2004-07-08T11:00:00Z,26.1914,-97.0507,2.0,11.22202521,21.68458669,-99999.0,'11111222,11111222,99999999' 
TABS,ioos:station:wmo:42044:1,2004-07-08T11:30:00Z,26.1914,-97.0507,2.0,9.930556819,20.52754247,-99999.0,'11111222,11111222,99999999' 
TABS,ioos:station:wmo:42044:1,2004-07-08T12:00:00Z,26.1914,-97.0507,2.0,17.32027571,20.15384827,-99999.0,'11111222,11111222,99999999' 
TABS,ioos:station:wmo:42044:1,2004-07-08T12:30:00Z,26.1914,-97.0507,2.0,18.32085902,20.61492906,-99999.0,'11111222,11111222,99999999' 
TABS,ioos:station:wmo:42044:1,2004-07-08T13:00:00Z,26.1914,-97.0507,2.0,19.76341859,19.37099378,-99999.0,'11111222,11111222,99999999' 
TABS,ioos:station:wmo:42044:1,2004-07-08T13:30:00Z,26.1914,-97.0507,2.0,24.55060544,22.26263686,-99999.0,'11111222,11111222,99999999' 
TABS,ioos:station:wmo:42044:1,2004-07-08T14:00:00Z,26.1914,-97.0507,2.0,32.17953486,21.98763744,-99999.0,'11111222,11111222,99999999' 
TABS,ioos:station:wmo:42044:1,2004-07-08T14:30:00Z,26.1914,-97.0507,2.0,31.84609009,19.04717564,-99999.0,'11111222,11111222,99999999' 
TABS,ioos:station:wmo:42044:1,2004-07-08T15:00:00Z,26.1914,-97.0507,2.0,33.97396264,19.04031775,-99999.0,'11111222,11111222,99999999' 
TABS,ioos:station:wmo:42044:1,2004-07-08T15:30:00Z,26.1914,-97.0507,2.0,34.03259938,18.10019061,-99999.0,'11111222,11111222,99999999' 
TABS,ioos:station:wmo:42044:1,2004-07-08T16:00:00Z,26.1914,-97.0507,2.0,36.72688744,19.21405996,-99999.0,'11111222,11111222,99999999' 
TABS,ioos:station:wmo:42044:1,2004-07-08T17:00:00Z,26.1914,-97.0507,2.0,45.39154727,19.66509853,-99999.0,'11111222,11111222,99999999' 
TABS,ioos:station:wmo:42044:1,2004-07-08T17:30:00Z,26.1914,-97.0507,2.0,46.27313227,17.50521351,-99999.0,'11111222,11111222,99999999' 
TABS,ioos:station:wmo:42044:1,2004-07-08T18:00:00Z,26.1914,-97.0507,2.0,49.83385625,18.71296075,-99999.0,'11111222,11111222,99999999' 
TABS,ioos:station:wmo:42044:1,2004-07-08T18:30:00Z,26.1914,-97.0507,2.0,47.68463565,16.60695035,-99999.0,'11111222,11111222,99999999' 
TABS,ioos:station:wmo:42044:1,2004-07-08T19:00:00Z,26.1914,-97.0507,2.0,50.51088669,15.53623185,-99999.0,'11111222,11111222,99999999' 
TABS,ioos:station:wmo:42044:1,2004-07-08T19:30:00Z,26.1914,-97.0507,2.0,52.37537316,12.44908029,-99999.0,'11111222,11111222,99999999' 
TABS,ioos:station:wmo:42044:1,2004-07-08T20:00:00Z,26.1914,-97.0507,2.0,43.30581369,13.63190742,-99999.0,'11111222,11111222,99999999' 
TABS,ioos:station:wmo:42044:1,2004-07-08T20:30:00Z,26.1914,-97.0507,2.0,56.43318336,7.740859125,-99999.0,'11133222,11111222,99999999' 
TABS,ioos:station:wmo:42044:1,2004-07-08T21:00:00Z,26.1914,-97.0507,2.0,54.8723232,13.48623372,-99999.0,'11111222,11111222,99999999' 
TABS,ioos:station:wmo:42044:1,2004-07-08T21:30:00Z,26.1914,-97.0507,2.0,46.46122084,10.81517915,-99999.0,'11111222,11111222,99999999' 
TABS,ioos:station:wmo:42044:1,2004-07-08T22:30:00Z,26.1914,-97.0507,2.0,41.17106789,14.40055554,-99999.0,'11111222,11111222,99999999' 
TABS,ioos:station:wmo:42044:1,2004-07-08T23:00:00Z,26.1914,-97.0507,2.0,30.20905492,15.6214468,-99999.0,'11111222,11111222,99999999' 
TABS,ioos:station:wmo:42044:1,2004-07-08T23:30:00Z,26.1914,-97.0507,2.0,21.10796727,15.80011709,-99999.0,'11111222,11111222,99999999' 
TABS,ioos:station:wmo:42044:1,2004-07-09T00:00:00Z,26.1914,-97.0507,2.0,19.52917086,18.21804051,-99999.0,'11111222,11111222,99999999' 
TABS,ioos:station:wmo:42044:1,2004-07-09T00:30:00Z,26.1914,-97.0507,2.0,23.69660522,18.58712727,-99999.0,'11111222,11111222,99999999' 
TABS,ioos:station:wmo:42044:1,2004-07-09T01:00:00Z,26.1914,-97.0507,2.0,18.07888838,18.81907809,-99999.0,'11111222,11111222,99999999' 
TABS,ioos:station:wmo:42044:1,2004-07-09T01:30:00Z,26.1914,-97.0507,2.0,19.87838758,21.46918955,-99999.0,'11111222,11111222,99999999' 
TABS,ioos:station:wmo:42044:1,2004-07-09T02:00:00Z,26.1914,-97.0507,2.0,13.84196542,22.15333158,-99999.0,'11111222,11111222,99999999' 
TABS,ioos:station:wmo:42044:1,2004-07-09T02:30:00Z,26.1914,-97.0507,2.0,2.538749121,22.35193504,-99999.0,'11111222,11111222,99999999' 
TABS,ioos:station:wmo:42044:1,2004-07-09T03:00:00Z,26.1914,-97.0507,2.0,9.618382469,18.73333393,-99999.0,'11111222,11111222,99999999' 
TABS,ioos:station:wmo:42044:1,2004-07-09T03:30:00Z,26.1914,-97.0507,2.0,11.2505745,20.75890411,-99999.0,'11111222,11111222,99999999' 
TABS,ioos:station:wmo:42044:1,2004-07-09T04:00:00Z,26.1914,-97.0507,2.0,13.0623697,20.97266078,-99999.0,'11111222,11111222,99999999' 
TABS,ioos:station:wmo:42044:1,2004-07-09T04:30:00Z,26.1914,-97.0507,2.0,15.19403659,19.68820967,-99999.0,'11111222,11111222,99999999' 
TABS,ioos:station:wmo:42044:1,2004-07-09T05:00:00Z,26.1914,-97.0507,2.0,14.66089164,19.36034349,-99999.0,'11111222,11111222,99999999' 
TABS,ioos:station:wmo:42044:1,2004-07-09T05:30:00Z,26.1914,-97.0507,2.0,10.95153313,20.05522874,-99999.0,'11111222,11111222,99999999' 
TABS,ioos:station:wmo:42044:1,2004-07-09T06:00:00Z,26.1914,-97.0507,2.0,12.29864042,20.23435198,-99999.0,'11111222,11111222,99999999' 
TABS,ioos:station:wmo:42044:1,2004-07-09T06:30:00Z,26.1914,-97.0507,2.0,16.85937701,20.58472492,-99999.0,'11111222,11111222,99999999' 
TABS,ioos:station:wmo:42044:1,2004-07-09T07:00:00Z,26.1914,-97.0507,2.0,14.98428105,18.9130907,-99999.0,'11111222,11111222,99999999' 
TABS,ioos:station:wmo:42044:1,2004-07-09T07:30:00Z,26.1914,-97.0507,2.0,3.962148845,18.81496479,-99999.0,'11111222,11111222,99999999' 
TABS,ioos:station:wmo:42044:1,2004-07-09T08:00:00Z,26.1914,-97.0507,2.0,9.954433247,19.1482558,-99999.0,'11111222,11111222,99999999' 
TABS,ioos:station:wmo:42044:1,2004-07-09T08:30:00Z,26.1914,-97.0507,2.0,5.779926133,18.96641769,-99999.0,'11111222,11111222,99999999' 
TABS,ioos:station:wmo:42044:1,2004-07-09T09:00:00Z,26.1914,-97.0507,2.0,9.770717185,18.03154181,-99999.0,'11111222,11111222,99999999' 
TABS,ioos:station:wmo:42044:1,2004-07-09T09:30:00Z,26.1914,-97.0507,2.0,5.284555567,18.45845064,-99999.0,'11111222,11111222,99999999' 
TABS,ioos:station:wmo:42044:1,2004-07-09T10:00:00Z,26.1914,-97.0507,2.0,356.9569779,19.7778917,-99999.0,'11111222,11111222,99999999' 
TABS,ioos:station:wmo:42044:1,2004-07-09T10:30:00Z,26.1914,-97.0507,2.0,6.375840606,19.63141615,-99999.0,'11111222,11111222,99999999' 
TABS,ioos:station:wmo:42044:1,2004-07-09T11:00:00Z,26.1914,-97.0507,2.0,359.4106596,21.38113187,-99999.0,'11111222,11144222,99999999' 
TABS,ioos:station:wmo:42044:1,2004-07-09T11:30:00Z,26.1914,-97.0507,2.0,21.66611852,21.20832384,-99999.0,'11111222,11111222,99999999' 
TABS,ioos:station:wmo:42044:1,2004-07-09T12:00:00Z,26.1914,-97.0507,2.0,20.72355232,20.03635945,-99999.0,'11111222,11111222,99999999' 
TABS,ioos:station:wmo:42044:1,2004-07-09T12:30:00Z,26.1914,-97.0507,2.0,18.33008303,20.70030435,-99999.0,'11111222,11111222,99999999' 
TABS,ioos:station:wmo:42044:1,2004-07-09T13:00:00Z,26.1914,-97.0507,2.0,21.29985895,19.2981994,-99999.0,'11111222,11111222,99999999' 
TABS,ioos:station:wmo:42044:1,2004-07-09T13:30:00Z,26.1914,-97.0507,2.0,24.54807345,17.78776265,-99999.0,'11111222,11111222,99999999' 
TABS,ioos:station:wmo:42044:1,2004-07-09T14:00:00Z,26.1914,-97.0507,2.0,20.73081698,14.21003167,-99999.0,'11111222,11111222,99999999' 
TABS,ioos:station:wmo:42044:1,2004-07-09T14:30:00Z,26.1914,-97.0507,2.0,29.38722723,14.89686209,-99999.0,'11111222,11111222,99999999' 
TABS,ioos:station:wmo:42044:1,2004-07-09T15:30:00Z,26.1914,-97.0507,2.0,36.40630826,15.56850988,-99999.0,'11111222,11111222,99999999' 
TABS,ioos:station:wmo:42044:1,2004-07-09T16:00:00Z,26.1914,-97.0507,2.0,46.57760013,15.66835346,-99999.0,'11111222,11111222,99999999' 
TABS,ioos:station:wmo:42044:1,2004-07-09T16:30:00Z,26.1914,-97.0507,2.0,38.06145383,15.10126485,-99999.0,'11111222,11111222,99999999' 
TABS,ioos:station:wmo:42044:1,2004-07-09T17:00:00Z,26.1914,-97.0507,2.0,40.48464812,14.37058802,-99999.0,'11111222,11111222,99999999' 
TABS,ioos:station:wmo:42044:1,2004-07-09T17:30:00Z,26.1914,-97.0507,2.0,37.94746461,11.80608741,-99999.0,'11111222,11111222,99999999' 
TABS,ioos:station:wmo:42044:1,2004-07-09T18:00:00Z,26.1914,-97.0507,2.0,40.886875,15.67450478,-99999.0,'11111222,11111222,99999999' 
TABS,ioos:station:wmo:42044:1,2004-07-09T18:30:00Z,26.1914,-97.0507,2.0,41.91018061,13.24923017,-99999.0,'11111222,11111222,99999999' 
TABS,ioos:station:wmo:42044:1,2004-07-09T19:00:00Z,26.1914,-97.0507,2.0,51.01297554,10.93546524,-99999.0,'11111222,11111222,99999999' 
TABS,ioos:station:wmo:42044:1,2004-07-09T19:30:00Z,26.1914,-97.0507,2.0,53.23270182,12.29601968,-99999.0,'11111222,11111222,99999999' 
TABS,ioos:station:wmo:42044:1,2004-07-09T20:00:00Z,26.1914,-97.0507,2.0,42.56784301,9.830569668,-99999.0,'11133222,11111222,99999999' 
TABS,ioos:station:wmo:42044:1,2004-07-09T20:30:00Z,26.1914,-97.0507,2.0,55.87818146,10.3038488,-99999.0,'11111222,11111222,99999999' 
TABS,ioos:station:wmo:42044:1,2004-07-09T21:30:00Z,26.1914,-97.0507,2.0,59.03631587,8.396570729,-99999.0,'11133222,11111222,99999999' 
TABS,ioos:station:wmo:42044:1,2004-07-09T22:00:00Z,26.1914,-97.0507,2.0,60.85943441,9.056279589,-99999.0,'11133222,11111222,99999999' 
TABS,ioos:station:wmo:42044:1,2004-07-09T22:30:00Z,26.1914,-97.0507,2.0,52.40602355,8.228657242,-99999.0,'11133222,11111222,99999999' 
TABS,ioos:station:wmo:42044:1,2004-07-09T23:00:00Z,26.1914,-97.0507,2.0,50.61296002,7.012766929,-99999.0,'11133222,11111222,99999999' 
TABS,ioos:station:wmo:42044:1,2004-07-09T23:30:00Z,26.1914,-97.0507,2.0,41.75775834,5.750912971,-99999.0,'11133222,11111222,99999999' 
TABS,ioos:station:wmo:42044:1,2004-07-10T00:00:00Z,26.1914,-97.0507,2.0,12.6711614,7.43097571,-99999.0,'11133222,11111222,99999999' 
TABS,ioos:station:wmo:42044:1,2004-07-10T00:30:00Z,26.1914,-97.0507,2.0,43.48625044,8.297258583,-99999.0,'11133222,11111222,99999999' 
TABS,ioos:station:wmo:42044:1,2004-07-10T01:00:00Z,26.1914,-97.0507,2.0,356.8814163,6.249255956,-99999.0,'11133222,11111222,99999999' 
TABS,ioos:station:wmo:42044:1,2004-07-10T01:30:00Z,26.1914,-97.0507,2.0,19.72600756,8.562458759,-99999.0,'11133222,11111222,99999999' 
TABS,ioos:station:wmo:42044:1,2004-07-10T02:00:00Z,26.1914,-97.0507,2.0,340.2087854,14.56004464,-99999.0,'11111222,11111222,99999999' 
TABS,ioos:station:wmo:42044:1,2004-07-10T02:30:00Z,26.1914,-97.0507,2.0,352.1077227,13.98244971,-99999.0,'11111222,11111222,99999999' 
TABS,ioos:station:wmo:42044:1,2004-07-10T03:00:00Z,26.1914,-97.0507,2.0,351.7231684,17.64378644,-99999.0,'11111222,11111222,99999999' 
TABS,ioos:station:wmo:42044:1,2004-07-10T03:30:00Z,26.1914,-97.0507,2.0,352.8752108,18.86568313,-99999.0,'11111222,11111222,99999999' 
TABS,ioos:station:wmo:42044:1,2004-07-10T04:00:00Z,26.1914,-97.0507,2.0,343.0568318,17.9804783,-99999.0,'11111222,11111222,99999999' 
TABS,ioos:station:wmo:42044:1,2004-07-10T04:30:00Z,26.1914,-97.0507,2.0,341.847547,17.33265415,-99999.0,'11111222,11111222,99999999' 
TABS,ioos:station:wmo:42044:1,2004-07-10T05:30:00Z,26.1914,-97.0507,2.0,355.7093572,16.70682795,-99999.0,'11111222,11111222,99999999' 
TABS,ioos:station:wmo:42044:1,2004-07-10T06:00:00Z,26.1914,-97.0507,2.0,0.512680205,16.77067083,-99999.0,'11111222,11111222,99999999' 
TABS,ioos:station:wmo:42044:1,2004-07-10T06:30:00Z,26.1914,-97.0507,2.0,0.000210459,14.67,-99999.0,'11111222,11111222,99999999' 
TABS,ioos:station:wmo:42044:1,2004-07-10T07:00:00Z,26.1914,-97.0507,2.0,31.92369718,17.81434254,-99999.0,'11111222,11111222,99999999' 
TABS,ioos:station:wmo:42044:1,2004-07-10T07:30:00Z,26.1914,-97.0507,2.0,1.152369792,17.90361975,-99999.0,'11111222,11111222,99999999' 
TABS,ioos:station:wmo:42044:1,2004-07-10T08:00:00Z,26.1914,-97.0507,2.0,9.818940366,19.82032543,-99999.0,'11111222,11111222,99999999' 
TABS,ioos:station:wmo:42044:1,2004-07-10T08:30:00Z,26.1914,-97.0507,2.0,7.363091056,20.91243649,-99999.0,'11111222,11111222,99999999' 
TABS,ioos:station:wmo:42044:1,2004-07-10T09:00:00Z,26.1914,-97.0507,2.0,19.88063934,19.5554238,-99999.0,'11111222,11111222,99999999' 
TABS,ioos:station:wmo:42044:1,2004-07-10T09:30:00Z,26.1914,-97.0507,2.0,18.39554736,18.31591658,-99999.0,'11111222,11111222,99999999' 
TABS,ioos:station:wmo:42044:1,2004-07-10T10:00:00Z,26.1914,-97.0507,2.0,3.34740421,17.46980252,-99999.0,'11111222,11111222,99999999' 
TABS,ioos:station:wmo:42044:1,2004-07-10T10:30:00Z,26.1914,-97.0507,2.0,14.91507208,17.87212634,-99999.0,'11111222,11111222,99999999' 
TABS,ioos:station:wmo:42044:1,2004-07-10T11:00:00Z,26.1914,-97.0507,2.0,25.69358705,18.52125806,-99999.0,'11111222,11111222,99999999' 
TABS,ioos:station:wmo:42044:1,2004-07-10T11:30:00Z,26.1914,-97.0507,2.0,29.28650008,17.04912021,-99999.0,'11111222,11111222,99999999' 
TABS,ioos:station:wmo:42044:1,2004-07-10T12:00:00Z,26.1914,-97.0507,2.0,37.3197973,16.56051026,-99999.0,'11111222,11111222,99999999' 
TABS,ioos:station:wmo:42044:1,2004-07-10T12:30:00Z,26.1914,-97.0507,2.0,36.91471427,15.38400468,-99999.0,'11111222,11111222,99999999' 
TABS,ioos:station:wmo:42044:1,2004-07-10T13:00:00Z,26.1914,-97.0507,2.0,36.08922394,13.64926738,-99999.0,'11111222,11111222,99999999' 
TABS,ioos:station:wmo:42044:1,2004-07-10T13:30:00Z,26.1914,-97.0507,2.0,29.38546664,12.45209219,-99999.0,'11111222,11111222,99999999' 
TABS,ioos:station:wmo:42044:1,2004-07-10T14:00:00Z,26.1914,-97.0507,2.0,39.73194103,11.9368882,-99999.0,'11111222,11111222,99999999' 
TABS,ioos:station:wmo:42044:1,2004-07-10T14:30:00Z,26.1914,-97.0507,2.0,66.29619912,10.57189198,-99999.0,'11111222,11111222,99999999' 
TABS,ioos:station:wmo:42044:1,2004-07-10T15:00:00Z,26.1914,-97.0507,2.0,77.77403141,10.67204292,-99999.0,'11111222,11111222,99999999' 
TABS,ioos:station:wmo:42044:1,2004-07-10T15:30:00Z,26.1914,-97.0507,2.0,79.98887337,10.46940782,-99999.0,'11111222,11111222,99999999' 
TABS,ioos:station:wmo:42044:1,2004-07-10T16:00:00Z,26.1914,-97.0507,2.0,84.78970454,9.800494885,-99999.0,'11133222,11111222,99999999' 
TABS,ioos:station:wmo:42044:1,2004-07-10T16:30:00Z,26.1914,-97.0507,2.0,75.684802,9.463852281,-99999.0,'11133222,11111222,99999999' 
TABS,ioos:station:wmo:42044:1,2004-07-10T17:00:00Z,26.1914,-97.0507,2.0,88.10457685,6.953804714,-99999.0,'11133222,11111222,99999999' 
TABS,ioos:station:wmo:42044:1,2004-07-10T18:00:00Z,26.1914,-97.0507,2.0,94.06010471,4.802051645,-99999.0,'11133222,11111222,99999999' 
TABS,ioos:station:wmo:42044:1,2004-07-10T18:30:00Z,26.1914,-97.0507,2.0,80.8130558,4.447043962,-99999.0,'11133222,11111222,99999999' 
TABS,ioos:station:wmo:42044:1,2004-07-10T19:00:00Z,26.1914,-97.0507,2.0,36.79459984,4.558003949,-99999.0,'11133222,11111222,99999999' 
TABS,ioos:station:wmo:42044:1,2004-07-10T19:30:00Z,26.1914,-97.0507,2.0,22.4386034,5.344642177,-99999.0,'11133222,11111222,99999999' 
TABS,ioos:station:wmo:42044:1,2004-07-10T20:00:00Z,26.1914,-97.0507,2.0,25.23676433,9.452163773,-99999.0,'11133222,11111222,99999999' 
TABS,ioos:station:wmo:42044:1,2004-07-10T20:30:00Z,26.1914,-97.0507,2.0,14.419443,10.52143051,-99999.0,'11111222,11111222,99999999' 
TABS,ioos:station:wmo:42044:1,2004-07-10T21:00:00Z,26.1914,-97.0507,2.0,16.51915268,9.742099363,-99999.0,'11133222,11111222,99999999' 
TABS,ioos:station:wmo:42044:1,2004-07-10T21:30:00Z,26.1914,-97.0507,2.0,5.246442398,13.01451882,-99999.0,'11111222,11111222,99999999' 
TABS,ioos:station:wmo:42044:1,2004-07-10T22:00:00Z,26.1914,-97.0507,2.0,10.01046539,14.43982341,-99999.0,'11111222,11111222,99999999' 
TABS,ioos:station:wmo:42044:1,2004-07-10T22:30:00Z,26.1914,-97.0507,2.0,6.455747583,13.16346459,-99999.0,'11111222,11111222,99999999' 
TABS,ioos:station:wmo:42044:1,2004-07-10T23:00:00Z,26.1914,-97.0507,2.0,348.4478488,14.83043492,-99999.0,'11111222,11111222,99999999' 
TABS,ioos:station:wmo:42044:1,2004-07-10T23:30:00Z,26.1914,-97.0507,2.0,354.421758,15.53356688,-99999.0,'11111222,11111222,99999999' 
TABS,ioos:station:wmo:42044:1,2004-07-11T00:00:00Z,26.1914,-97.0507,2.0,5.871830451,13.09872131,-99999.0,'11111222,11111222,99999999' 
TABS,ioos:station:wmo:42044:1,2004-07-11T00:30:00Z,26.1914,-97.0507,2.0,0.455229183,15.1104765,-99999.0,'11111222,11111222,99999999' 
TABS,ioos:station:wmo:42044:1,2004-07-11T01:00:00Z,26.1914,-97.0507,2.0,1.072648611,16.56290132,-99999.0,'11111222,11111222,99999999' 
TABS,ioos:station:wmo:42044:1,2004-07-11T01:30:00Z,26.1914,-97.0507,2.0,355.6708769,14.5715785,-99999.0,'11111222,11111222,99999999' 
TABS,ioos:station:wmo:42044:1,2004-07-11T02:30:00Z,26.1914,-97.0507,2.0,359.0459604,16.21224846,-99999.0,'11111222,11144222,99999999' 
TABS,ioos:station:wmo:42044:1,2004-07-11T03:00:00Z,26.1914,-97.0507,2.0,352.5018905,18.08464819,-99999.0,'11111222,11111222,99999999' 
TABS,ioos:station:wmo:42044:1,2004-07-11T03:30:00Z,26.1914,-97.0507,2.0,354.5478877,18.10190045,-99999.0,'11111222,11111222,99999999' 
TABS,ioos:station:wmo:42044:1,2004-07-11T04:00:00Z,26.1914,-97.0507,2.0,358.4942187,20.92722867,-99999.0,'11111222,11111222,99999999' 
TABS,ioos:station:wmo:42044:1,2004-07-11T04:30:00Z,26.1914,-97.0507,2.0,353.4905382,20.90477936,-99999.0,'11111222,11111222,99999999' 
TABS,ioos:station:wmo:42044:1,2004-07-11T05:00:00Z,26.1914,-97.0507,2.0,358.9432152,21.68368972,-99999.0,'11111222,11111222,99999999' 
TABS,ioos:station:wmo:42044:1,2004-07-11T05:30:00Z,26.1914,-97.0507,2.0,355.5389883,21.0838801,-99999.0,'11111222,11111222,99999999' 
TABS,ioos:station:wmo:42044:1,2004-07-11T06:00:00Z,26.1914,-97.0507,2.0,9.310980925,21.75663807,-99999.0,'11111222,11111222,99999999' 
TABS,ioos:station:wmo:42044:1,2004-07-11T06:30:00Z,26.1914,-97.0507,2.0,12.74668074,21.98172195,-99999.0,'11111222,11111222,99999999' 
TABS,ioos:station:wmo:42044:1,2004-07-11T07:00:00Z,26.1914,-97.0507,2.0,12.97277116,25.346915,-99999.0,'11111222,11111222,99999999' 
TABS,ioos:station:wmo:42044:1,2004-07-11T07:30:00Z,26.1914,-97.0507,2.0,11.06474049,23.8126395,-99999.0,'11111222,11111222,99999999' 
TABS,ioos:station:wmo:42044:1,2004-07-11T08:00:00Z,26.1914,-97.0507,2.0,15.77526799,25.41731103,-99999.0,'11111222,11111222,99999999' 
TABS,ioos:station:wmo:42044:1,2004-07-11T08:30:00Z,26.1914,-97.0507,2.0,16.16611371,22.12482994,-99999.0,'11111222,11111222,99999999' 
TABS,ioos:station:wmo:42044:1,2004-07-11T09:00:00Z,26.1914,-97.0507,2.0,15.67539855,24.76089053,-99999.0,'11111222,11111222,99999999' 
TABS,ioos:station:wmo:42044:1,2004-07-11T09:30:00Z,26.1914,-97.0507,2.0,21.14433292,26.22562106,-99999.0,'11111222,11111222,99999999' 
TABS,ioos:station:wmo:42044:1,2004-07-11T10:00:00Z,26.1914,-97.0507,2.0,19.93222562,24.93358378,-99999.0,'11111222,11111222,99999999' 
TABS,ioos:station:wmo:42044:1,2004-07-11T10:30:00Z,26.1914,-97.0507,2.0,28.66949632,24.84605401,-99999.0,'11111222,11111222,99999999' 
TABS,ioos:station:wmo:42044:1,2004-07-11T11:00:00Z,26.1914,-97.0507,2.0,32.25661367,23.94558206,-99999.0,'11111222,11111222,99999999' 
TABS,ioos:station:wmo:42044:1,2004-07-11T11:30:00Z,26.1914,-97.0507,2.0,45.01811706,22.49306782,-99999.0,'11111222,11111222,99999999' 
TABS,ioos:station:wmo:42044:1,2004-07-11T12:00:00Z,26.1914,-97.0507,2.0,48.07755343,20.41533002,-99999.0,'11111222,11111222,99999999' 
TABS,ioos:station:wmo:42044:1,2004-07-11T12:30:00Z,26.1914,-97.0507,2.0,53.4503354,20.4023185,-99999.0,'11111222,11111222,99999999' 
TABS,ioos:station:wmo:42044:1,2004-07-11T13:00:00Z,26.1914,-97.0507,2.0,57.75670866,16.58804992,-99999.0,'11111222,11111222,99999999' 
TABS,ioos:station:wmo:42044:1,2004-07-11T13:30:00Z,26.1914,-97.0507,2.0,49.85795547,16.78336379,-99999.0,'11111222,11111222,99999999' 
TABS,ioos:station:wmo:42044:1,2004-07-11T14:00:00Z,26.1914,-97.0507,2.0,58.00243691,15.68266878,-99999.0,'11111222,11111222,99999999' 
TABS,ioos:station:wmo:42044:1,2004-07-11T14:30:00Z,26.1914,-97.0507,2.0,62.71127953,15.22436534,-99999.0,'11111222,11111222,99999999' 
TABS,ioos:station:wmo:42044:1,2004-07-11T16:00:00Z,26.1914,-97.0507,2.0,93.3766152,13.2429906,-99999.0,'11111222,11111222,99999999' 
TABS,ioos:station:wmo:42044:1,2004-07-11T16:30:00Z,26.1914,-97.0507,2.0,82.28703827,10.878419,-99999.0,'11111222,11111222,99999999' 
TABS,ioos:station:wmo:42044:1,2004-07-11T17:00:00Z,26.1914,-97.0507,2.0,88.83499714,11.3123384,-99999.0,'11111222,11111222,99999999' 
TABS,ioos:station:wmo:42044:1,2004-07-11T17:30:00Z,26.1914,-97.0507,2.0,94.30238751,11.86343121,-99999.0,'11111222,11111222,99999999' 
TABS,ioos:station:wmo:42044:1,2004-07-11T18:00:00Z,26.1914,-97.0507,2.0,100.370403,11.72147602,-99999.0,'11111222,11111222,99999999' 
TABS,ioos:station:wmo:42044:1,2004-07-11T19:30:00Z,26.1914,-97.0507,2.0,125.1341109,4.952272206,-99999.0,'11133222,11111222,99999999' 
TABS,ioos:station:wmo:42044:1,2004-07-11T20:00:00Z,26.1914,-97.0507,2.0,147.1472527,6.451852447,-99999.0,'11133222,11111222,99999999' 
TABS,ioos:station:wmo:42044:1,2004-07-11T20:30:00Z,26.1914,-97.0507,2.0,157.4349769,6.410772184,-99999.0,'11133222,11111222,99999999' 